Flag for Germany Weather past 2 weeks in Siegburg, North Rhine-Westphalia, Germany

Now
51 °F

Passing clouds.


Feels Like: 50 °F
Forecast: 47 / 65 °F
Wind: 5 mph from Southwest

Location: Bonn-Hangelar

Current Time: Aug 20, 2014 at 9:26:09 AM

Latest Report: Aug 20, 2014 at 9:00 AM


Visibility: 25 mi

Pressure: 30.03 "Hg

Humidity: 81%

Dew point: 45 °F

Location of SiegburgLocation

Historic Weather in Siegburg — Graph

°F

Siegburg temperature yesterday

Maximum temperature yesterday: 59 °F (at 4:00 PM)
Minimum temperature yesterday: 49 °F (at 11:00 PM)
Average temperature yesterday: 53 °F

Past Weeks' High & Low Weather Summary

 TemperatureHumidityPressure
High76 °F (Aug 8, 2:00 PM)98% (Aug 9, 12:00 AM)30.13 "Hg (Aug 9, 12:00 AM)
Low47 °F (Aug 20, 6:00 AM)44% (Aug 6, 3:00 PM)29.57 "Hg (Aug 10, 6:00 PM)
Average60 °F80%29.89 "Hg
* Reported Aug 5 8:00 AM — Aug 20 8:00 AM, Siegburg, Weather by CustomWeather, © 2014

Note: Actual official high and low records may vary slightly from our data, if they occured in-between our weather recording intervals... More about our weather records

Advertising

Siegburg weather history for previous 24 hours

 ConditionsComfort  
Time TempWeatherWind HumidityBarometerVisibility
8:00 AM
Aug 20
49 °FPassing clouds.5 mph86%30.03 "Hg25 mi
7:00 AM47 °FPassing clouds.5 mph89%30.03 "Hg31 mi
6:00 AM47 °FClear.6 mph89%30.02 "Hg37 mi
5:00 AM47 °FClear.6 mph88%30.02 "Hg13 mi
4:00 AM47 °FClear.5 mph90%30.01 "Hg11 mi
3:00 AM47 °FClear.5 mph90%30.01 "Hg13 mi
2:00 AM48 °FClear.5 mph89%30.01 "Hg12 mi
1:00 AM48 °FClear.3 mph90%30.01 "Hg14 mi
12:00 AM49 °FOvercast.2 mph86%30.01 "Hg19 mi
11:00 PM
Aug 19
49 °FClear.2 mph83%30.00 "Hg28 mi
10:00 PM49 °FClear.3 mph85%29.98 "Hg16 mi
9:00 PM52 °FPassing clouds.3 mph83%29.95 "Hg25 mi
8:00 PM54 °FScattered clouds.5 mph78%29.93 "Hg28 mi
7:00 PM55 °FPassing clouds.6 mph74%29.92 "Hg19 mi
6:00 PM54 °FSprinkles. Overcast.7 mph74%29.91 "Hg16 mi
5:00 PM57 °FScattered clouds.8 mph70%29.89 "Hg28 mi
4:00 PM59 °FPartly sunny.10 mph63%29.88 "Hg28 mi
3:00 PM58 °FOvercast.9 mph72%29.88 "Hg22 mi
2:00 PM56 °FOvercast.8 mph85%29.87 "Hg16 mi
1:00 PM54 °FSprinkles. Low clouds.7 mph93%29.86 "Hg9 mi
12:00 PM54 °FSprinkles. Low clouds.7 mph96%29.85 "Hg8 mi
11:00 AM54 °FSprinkles. Overcast.7 mph92%29.84 "Hg12 mi
10:00 AM54 °FOvercast.6 mph91%29.84 "Hg22 mi
9:00 AM53 °FSprinkles. Overcast.7 mph94%29.84 "Hg16 mi
Weather by CustomWeather, © 2014

See weather overviewHow to use our weather pages